Ionia, MI

7:51 PM EST on November 21, 2019 (GMT -0500)
Ionia

Weather History for KY70 - September, 2019

Change the Weather History Date:

Thursday, September 12, 2019

  Actual Average (KGRR) Record (KGRR)
Temperature  
Mean Temperature 64 °F -  
Max Temperature 68 °F 74 °F 95 °F (1952)
Min Temperature 61 °F 53 °F 37 °F (1964)
Growing Degree Days 14 (Base 50)    
Moisture  
Dew Point 62 °F    
Average Humidity 92    
Maximum Humidity 96    
Minimum Humidity 83    
Precipitation  
Precipitation 0.01 in - - ()
Sea Level Pressure  
Sea Level Pressure 30.16 in    
Wind  
Wind Speed 7 mph ()    
Max Wind Speed 14 mph    
Max Gust Speed 18 mph    
Visibility 7.1 miles    
Events Rain    
Averages and records for this station are not official NWS values.
T = Trace of Precipitation, MM = Missing Value Source: Averaged Metar Reports

Daily Weather History Graph

Daily Weather History Graph

Search for Another Location

Airport or City:

Astronomy

Sep. 12, 2019 Rise Set
Actual Time 7:16 AM EDT 7:55 PM EDT
Civil Twilight 6:47 AM EDT 8:24 PM EDT
Nautical Twilight 6:13 AM EDT 8:58 PM EDT
Astronomical Twilight 5:38 AM EDT 9:33 PM EDT
Moon 7:43 PM EDT (9/12) 5:31 AM EDT (9/12)
Length of Visible Light 13h 36m
Length of Day
12h 39m
Waxing Gibbous, 98% of the Moon is Illuminated
Sep 12
Waxing Gibbous
Sep 14
Full
Sep 21
Last Quarter
Sep 28
New
Oct 5
First Quarter

Hourly Weather History & Observations

Time (EDT) Temp. Dew Point Humidity Pressure Visibility Wind Dir Wind Speed Gust Speed Precip Events Conditions
12:00 AM 68.7 °F 66.9 °F 94% 30.06 in 10.0 mi Calm Calm - N/A   Scattered Clouds
12:18 AM 67.8 °F 66.2 °F 95% 30.07 in 7.0 mi North 3.5 mph - N/A   Scattered Clouds
12:36 AM 68.0 °F 66.6 °F 95% 30.08 in 10.0 mi Calm Calm - N/A   Mostly Cloudy
12:55 AM 68.9 °F 67.3 °F 95% 30.08 in 10.0 mi Calm Calm - N/A Rain Light Rain
12:56 AM 68.9 °F 67.3 °F 95% 30.08 in 10.0 mi Calm Calm - N/A Rain Light Rain
1:15 AM 68.5 °F 67.1 °F 95% 30.08 in 7.0 mi Calm Calm - N/A   Overcast
1:39 AM 68.4 °F 67.1 °F 96% 30.07 in 7.0 mi Calm Calm - N/A Rain Light Rain
1:57 AM 68.9 °F 67.5 °F 95% 30.06 in 10.0 mi Calm Calm - N/A Rain Light Rain
2:15 AM 68.5 °F 67.1 °F 95% 30.06 in 5.0 mi NE 6.9 mph - N/A   Overcast
2:16 AM 68.5 °F 67.1 °F 95% 30.06 in 5.0 mi NE 6.9 mph - N/A   Overcast
2:35 AM 67.3 °F 65.8 °F 95% 30.06 in 2.0 mi NE 10.4 mph - N/A   Overcast
2:36 AM 67.1 °F 65.7 °F 95% 30.06 in 2.0 mi NE 10.4 mph - N/A   Overcast
2:55 AM 65.7 °F 64.4 °F 96% 30.07 in 1.2 mi NNE 8.1 mph - N/A   Overcast
2:59 AM 65.5 °F 64.0 °F 95% 30.07 in 2.0 mi NNE 9.2 mph - N/A   Overcast
3:17 AM 65.3 °F 63.7 °F 94% 30.07 in 5.0 mi NE 8.1 mph - N/A   Overcast
3:35 AM 64.9 °F 63.5 °F 95% 30.09 in 4.0 mi NE 10.4 mph - N/A   Overcast
3:36 AM 64.9 °F 63.5 °F 95% 30.09 in 4.0 mi NE 10.4 mph - N/A   Overcast
3:55 AM 64.2 °F 62.8 °F 95% 30.09 in 4.0 mi NE 13.8 mph 18.4 mph 0.01 in   Overcast
4:15 AM 63.5 °F 62.1 °F 95% 30.10 in 4.0 mi NE 12.7 mph - N/A   Overcast
4:38 AM 62.8 °F 61.5 °F 96% 30.11 in 5.0 mi NE 13.8 mph 18.4 mph N/A   Overcast
4:56 AM 62.6 °F 61.2 °F 95% 30.11 in 7.0 mi NE 10.4 mph - N/A   Overcast
5:15 AM 62.6 °F 61.0 °F 94% 30.12 in 7.0 mi NE 8.1 mph - N/A   Overcast
5:16 AM 62.6 °F 61.0 °F 94% 30.12 in 7.0 mi NE 9.2 mph - N/A   Overcast
5:35 AM 62.1 °F 60.8 °F 96% 30.13 in 7.0 mi NE 10.4 mph 16.1 mph N/A   Overcast
5:36 AM 62.1 °F 60.8 °F 96% 30.13 in 7.0 mi NE 9.2 mph 16.1 mph N/A   Overcast
5:59 AM 61.9 °F 60.4 °F 95% 30.14 in 7.0 mi NE 9.2 mph - N/A   Overcast
6:17 AM 61.9 °F 60.3 °F 94% 30.15 in 7.0 mi NE 9.2 mph - N/A   Overcast
6:35 AM 61.7 °F 60.3 °F 95% 30.16 in 5.0 mi NE 9.2 mph - N/A   Overcast
6:55 AM 61.7 °F 60.1 °F 94% 30.17 in 7.0 mi NE 8.1 mph 16.1 mph N/A   Overcast
7:15 AM 61.7 °F 59.9 °F 94% 30.17 in 7.0 mi NE 11.5 mph - N/A Rain Rain
7:20 AM 61.3 °F 59.9 °F 95% 30.16 in 7.0 mi NE 10.4 mph - N/A Rain Rain
7:38 AM 61.3 °F 59.9 °F 95% 30.17 in 4.0 mi NE 10.4 mph 16.1 mph N/A Rain Light Rain
7:56 AM 61.3 °F 59.9 °F 95% 30.17 in 7.0 mi ENE 10.4 mph - N/A   Overcast
8:15 AM 61.3 °F 59.9 °F 95% 30.18 in 10.0 mi ENE 10.4 mph 16.1 mph N/A   Overcast
8:35 AM 61.3 °F 59.5 °F 94% 30.17 in 10.0 mi ENE 10.4 mph 17.3 mph N/A   Overcast
8:59 AM 61.7 °F 59.5 °F 93% 30.18 in 10.0 mi ENE 8.1 mph - N/A   Overcast
9:17 AM 61.7 °F 59.5 °F 93% 30.19 in 10.0 mi ENE 9.2 mph - N/A   Overcast
9:35 AM 61.9 °F 59.7 °F 93% 30.19 in 10.0 mi ENE 9.2 mph - N/A   Overcast
9:36 AM 62.1 °F 59.7 °F 92% 30.19 in 10.0 mi ENE 9.2 mph - N/A   Overcast
9:55 AM 62.2 °F 59.9 °F 92% 30.20 in 10.0 mi ENE 6.9 mph - N/A   Overcast
10:15 AM 62.6 °F 59.9 °F 91% 30.20 in 10.0 mi NE 11.5 mph - N/A   Overcast
10:19 AM 62.8 °F 60.1 °F 91% 30.20 in 10.0 mi NE 10.4 mph - N/A   Overcast
10:38 AM 62.8 °F 59.9 °F 90% 30.20 in 10.0 mi ENE 11.5 mph 16.1 mph N/A   Overcast
10:56 AM 63.1 °F 59.9 °F 89% 30.21 in 10.0 mi NE 12.7 mph 17.3 mph N/A   Overcast
11:15 AM 63.5 °F 59.9 °F 88% 30.21 in 10.0 mi ENE 10.4 mph 16.1 mph N/A   Overcast
11:16 AM 63.5 °F 60.1 °F 89% 30.21 in 10.0 mi ENE 10.4 mph 16.1 mph N/A   Overcast
11:35 AM 64.0 °F 59.7 °F 86% 30.21 in 10.0 mi ENE 11.5 mph 17.3 mph N/A   Overcast
12:17 PM 64.9 °F 60.3 °F 85% 30.20 in 10.0 mi East 10.4 mph - N/A   Overcast
12:35 PM 65.3 °F 60.6 °F 85% 30.20 in 10.0 mi NE 10.4 mph - N/A   Overcast
12:55 PM 65.7 °F 60.8 °F 84% 30.20 in 10.0 mi NE 8.1 mph - N/A   Overcast
12:56 PM 65.8 °F 61.0 °F 84% 30.20 in 10.0 mi NE 8.1 mph - N/A   Overcast
1:15 PM 65.5 °F 61.3 °F 86% 30.21 in 10.0 mi NE 9.2 mph - N/A   Overcast
1:20 PM 65.5 °F 61.0 °F 85% 30.21 in 10.0 mi NE 6.9 mph - N/A   Overcast
1:55 PM 66.2 °F 61.3 °F 84% 30.21 in 10.0 mi ENE 6.9 mph - N/A   Overcast
2:15 PM 66.2 °F 61.0 °F 83% 30.20 in 10.0 mi ENE 5.8 mph - N/A   Overcast
2:35 PM 66.2 °F 61.5 °F 85% 30.20 in 10.0 mi ENE 8.1 mph - N/A   Overcast
2:40 PM 66.2 °F 61.2 °F 84% 30.20 in 10.0 mi ENE 8.1 mph - N/A   Overcast
2:58 PM 66.2 °F 61.0 °F 83% 30.20 in 10.0 mi ENE 9.2 mph - N/A   Overcast
3:16 PM 66.7 °F 61.3 °F 83% 30.19 in 10.0 mi ENE 9.2 mph - N/A   Overcast
3:35 PM 66.6 °F 61.5 °F 84% 30.19 in 10.0 mi ENE 12.7 mph - N/A   Overcast
3:55 PM 66.9 °F 61.5 °F 83% 30.19 in 10.0 mi ENE 12.7 mph - N/A   Overcast
4:19 PM 66.7 °F 61.5 °F 83% 30.19 in 10.0 mi ENE 11.5 mph 17.3 mph N/A   Overcast
4:37 PM 67.1 °F 61.7 °F 83% 30.19 in 10.0 mi ENE 11.5 mph - N/A   Overcast
4:55 PM 66.7 °F 61.9 °F 84% 30.19 in 10.0 mi East 8.1 mph - N/A   Overcast
5:15 PM 66.4 °F 61.7 °F 85% 30.19 in 10.0 mi ENE 9.2 mph - N/A   Overcast
5:35 PM 66.2 °F 61.7 °F 85% 30.18 in 10.0 mi ENE 9.2 mph - N/A   Overcast
5:58 PM 65.8 °F 61.9 °F 87% 30.17 in 10.0 mi ENE 10.4 mph - N/A   Overcast
6:16 PM 66.2 °F 61.9 °F 86% 30.17 in 10.0 mi East 8.1 mph 17.3 mph N/A   Overcast
6:35 PM 66.0 °F 61.9 °F 86% 30.17 in 10.0 mi ENE 9.2 mph - N/A   Overcast
6:55 PM 65.3 °F 62.2 °F 90% 30.19 in 10.0 mi ENE 9.2 mph - N/A   Overcast
7:19 PM 64.4 °F 62.6 °F 94% 30.17 in 3.0 mi East 10.4 mph - N/A   Overcast
7:37 PM 64.4 °F 62.8 °F 94% 30.17 in 2.5 mi NE 9.2 mph - N/A   Overcast
7:55 PM 64.0 °F 62.6 °F 95% 30.17 in 3.0 mi ENE 11.5 mph 17.3 mph N/A   Overcast
7:56 PM 64.0 °F 62.6 °F 95% 30.18 in 3.0 mi ENE 12.7 mph 17.3 mph N/A   Overcast
8:15 PM 64.2 °F 62.6 °F 94% 30.18 in 5.0 mi ENE 11.5 mph - N/A   Overcast
8:16 PM 64.2 °F 62.6 °F 94% 30.18 in 5.0 mi ENE 11.5 mph - N/A   Overcast
8:35 PM 64.4 °F 62.8 °F 94% 30.19 in 5.0 mi ENE 9.2 mph 17.3 mph N/A   Overcast
8:40 PM 64.4 °F 62.8 °F 94% 30.19 in 4.0 mi East 10.4 mph - N/A   Overcast
8:58 PM 64.4 °F 62.8 °F 94% 30.19 in 2.5 mi ENE 9.2 mph - N/A   Overcast
9:16 PM 64.4 °F 63.0 °F 95% 30.18 in 2.5 mi ENE 11.5 mph - N/A   Overcast
9:35 PM 64.4 °F 63.0 °F 95% 30.17 in 2.5 mi East 6.9 mph - N/A   Overcast
9:55 PM 64.4 °F 63.1 °F 96% 30.19 in 2.5 mi East 8.1 mph - N/A   Overcast
9:56 PM 64.6 °F 63.1 °F 95% 30.19 in 2.5 mi ENE 9.2 mph - N/A   Overcast
10:19 PM 64.6 °F 63.5 °F 96% 30.18 in 3.0 mi East 9.2 mph - N/A   Overcast
10:37 PM 64.8 °F 63.5 °F 96% 30.17 in 2.5 mi East 10.4 mph - N/A   Overcast
10:55 PM 64.9 °F 63.7 °F 96% 30.17 in 2.5 mi East 10.4 mph - N/A   Overcast
11:15 PM 65.3 °F 63.9 °F 95% 30.17 in 2.5 mi East 11.5 mph - N/A   Overcast
11:35 PM 65.3 °F 63.9 °F 95% 30.17 in 3.0 mi East 11.5 mph - N/A   Overcast
11:40 PM 65.3 °F 63.9 °F 95% 30.17 in 4.0 mi East 10.4 mph - N/A   Overcast
11:58 PM 65.5 °F 64.0 °F 95% 30.16 in 5.0 mi ESE 12.7 mph - N/A   Overcast